SCP
0 0 0 0 0 0 0 0 0 0 0 0 0 0 0 0 -0 -0 0 0 0 -0 -0 -0 0 0 0 0 0 0 0 0 -0 0 -0 -0 -0 0 0 -0 0 0 0 -0 -0
0 0 0 0 0 0 0 0 0 0 0 0 0 0 0 0 -0 0 0 0 0 -0 -0 -0 0 0 0 0 0 -0 0 0 0 0 -0 -0 -0 -0 0 -0 0 0 -0 -0 -0
0 0 0 0 0 0 0 0 0 0 0 0 0 0 0 -0 0 0 0 0 -0 -0 0 0 0 0 0 -0 -0 -0 0 0 0 0 0 0 -0 -0 0 0 0 -0 -0 -0 -0
0 0 0 0 0 0 0 0 0 0 0 0 0 0 0 -0 0 0 0 0 -0 -0 0 -0 0 0 0 0 -0 0 0 0 0 0 0 -0 -0 -0 0 0 -0 -0 -0 -0 -0
0 0 0 0 0 0 0 0 0 0 0 0 0 -0 0 0 0 0 0 0 0 0 0 -0 0 0 0 0 -0 -0 -0 0 0 -0 -0 -0 -0 -0 -0 0 -0 -0 -0 -0 -0
0 0 0 0 0 0 -0 0 0 0 0 0 -0 -0 0 0 0 0 0 -0 -0 -0 0 0 0 0 0 -0 0 -0 -0 0 0 -0 0 0 -0 0 0 -0 -0 -0 -0 -0 -0
0 0 0 0 0 -0 -0 0 0 0 0 -0 -0 0 0 0 0 0 -0 -0 0 0 0 0 0 0 0 0 0 0 -0 -0 0 -0 0 0 -0 0 -0 -0 -0 -0 -0 -0 -0
0 0 0 0 0 -0 -0 0 0 -0 -0 -0 -0 0 0 0 0 0 -0 0 0 0 0 0 0 0 0 0 0 0 0 -0 0 0 0 0 -0 -0 -0 -0 -0 -0 -0 -0 -0
0 0 0 0 0 -0 -0 0 -0 -0 -0 -0 -0 0 0 0 0 0 -0 0 0 0 0 0 0 0 0 0 0 0 0 -0 0 0 0 0 0 -0 -0 0 0 -0 -0 -0 -0
0 0 0 0 0 0 0 -0 -0 -0 -0 -0 0 0 0 0 0 0 -0 0 0 0 0 0 0 0 0 0 0 0 0 0 0 0 0 -0 0 0 -0 0 0 -0 -0 -0 -0
0 0 0 0 0 0 0 -0 0 -0 0 0 0 0 0 0 0 0 0 0 0 0 0 0 0 0 0 0 0 0 0 0 0 0 0 0 0 0 0 0 0 0 -0 -0 -0
0 0 0 0 0 0 -0 -0 0 0 0 0 0 0 0 0 0 0 0 0 0 0 0 0 0 0 0 0 0 0 0 0 0 0 0 0 0 0 0 -0 0 0 -0 -0 -0
0 0 0 0 0 -0 -0 0 0 -0 0 0 0 0 0 0 0 0 0 -0 0 0 0 0 0 0 0 0 0 0 0 0 0 0 0 0 0 0 0 -0 -0 0 0 -0 -0
0 0 0 0 -0 0 -0 0 0 -0 0 0 0 0 0 0 0 0 -0 0 0 0 0 0 0 0 0 0 0 0 0 0 0 0 0 0 -0 0 0 -0 -0 -0 0 -0 -0
0 0 0 0 0 0 0 0 0 0 0 0 0 0 0 0 0 0 0 0 0 0 0 0 0 0 0 0 0 0 0 0 0 0 0 0 0 0 0 0 -0 0 0 0 0
0 0 0 0 0 0 0 0 0 0 0 0 0 0 0 0 0 0 0 0 0 0 0 0 0 0 0 0 0 0 0 0 0 0 0 0 0 0 0 0 0 0 0 0 0
0 0 0 0 0 0 0 0 0 0 0 0 0 0 0 0 0 0 0 0 0 0 0 0 0 0 0 0 0 0 0 0 0 0 0 0 0 0 0 0 0 0 -0 0 0
0 0 0 0 0 0 0 0 0 0 0 0 0 0 0 0 0 0 0 0 0 0 0 0 0 0 0 0 0 0 0 0 0 0 0 0 0 0 0 0 0 -0 0 0 0
0 0 0 0 0 0 0 0 0 0 0 0 0 0 0 0 0 0 0 0 0 0 0 0 0 0 0 0 0 0 0 0 0 0 0 0 0 0 0 0 -0 0 0 0 0
0 0 0 0 0 0 0 0 0 0 0 0 0 0 0 0 0 0 0 0 0 0 0 0 0 0 0 0 0 0 0 0 0 0 0 0 0 0 0 0 0 0 0 0 0
0 0 0 0 0 0 0 0 0 0 0 0 0 0 0 0 0 0 0 0 0 0 0 0 0 0 0 -0 0 0 0 0 0 0 0 0 0 0 0 0 0 0 0 0 0
0 0 0 0 0 0 0 0 0 0 0 0 0 0 0 0 0 0 0 0 0 0 0 0 0 0 0 0 0 0 0 0 0 0 0 0 0 0 0 0 0 0 0 0 0
0 0 0 0 0 0 0 0 0 0 0 0 0 0 0 0 0 0 0 0 0 0 0 0 0 0 0 0 0 0 0 0 0 0 0 0 0 0 0 -0 0 0 0 0 0
0 0 0 0 0 0 0 0 0 0 0 0 0 0 0 0 0 0 0 0 0 0 0 0 0 0 0 0 0 0 0 0 0 0 0 0 0 0 0 0 0 0 0 0 0
0 0 0 0 0 0 0 0 0 0 0 0 0 0 0 0 0 0 0 0 0 0 0 0 0 0 0 0 0 0 0 0 0 0 0 0 0 0 0 0 0 0 0 0 1
0 0 0 0 0 0 0 0 0 0 0 0 0 0 0 0 0 0 0 0 0 0 0 0 0 0 0 0 0 0 0 0 0 0 0 0 0 0 0 0 0 0 0 1 1
0 0 0 0 0 0 0 0 0 0 0 0 0 0 0 0 0 0 0 0 0 0 0 0 0 0 0 0 0 0 0 0 0 0 0 0 0 0 0 0 0 0 1 1 1
Wind_Speed_500mb
21 23 26 30 33 36 40 40 40 40 42 44 42 39 35 30 21 13 2 15 31 42 43 34 23 18 20 19 11 8 12 8 3 8 12 16 17 12 12 28 10 12 4 32 43
22 25 28 31 33 36 39 40 40 40 40 42 41 36 32 27 7 7 5 24 30 41 42 35 30 26 24 20 13 19 15 6 8 6 3 14 21 19 14 24 17 14 23 40 46
20 23 27 32 36 38 40 40 41 40 38 39 40 32 29 23 4 5 10 27 32 42 28 26 27 28 25 21 19 18 11 8 5 9 8 12 21 18 15 16 14 28 42 44 44
20 24 30 33 35 40 41 41 40 40 36 38 35 28 26 10 2 4 17 29 30 33 27 24 31 30 25 21 22 18 14 5 6 5 7 19 24 18 16 8 13 34 44 44 42
20 24 29 34 38 40 42 42 40 40 35 35 28 25 21 9 6 8 20 24 25 25 29 30 32 31 25 26 23 24 16 10 8 11 11 19 22 15 19 9 25 40 44 42 39
24 26 30 35 40 43 43 42 40 38 35 30 24 22 15 12 5 12 22 21 20 22 29 26 22 21 15 21 29 25 19 14 12 18 14 22 23 18 20 21 32 44 45 42 40
25 26 31 37 43 46 46 43 38 36 34 26 20 21 11 7 11 16 22 19 21 20 26 23 15 18 12 18 20 12 21 17 14 13 14 28 23 25 27 31 36 43 44 42 44
26 27 31 37 44 48 48 45 37 35 31 23 19 18 8 6 9 17 21 17 20 21 16 16 9 9 17 3 16 23 24 24 14 14 7 33 32 33 35 36 37 43 43 45 46
26 28 31 37 44 49 50 45 38 32 22 17 15 3 5 6 5 18 19 12 20 22 15 13 8 10 15 24 23 25 26 33 15 19 8 28 15 39 36 36 32 42 45 47 49
25 25 30 37 43 48 47 41 27 19 5 9 8 7 9 14 9 13 19 19 21 27 20 16 16 18 21 21 27 31 36 18 22 24 22 31 21 11 31 37 34 42 46 48 51
25 24 28 34 40 43 43 24 17 2 17 17 10 16 7 5 6 14 23 21 23 32 25 27 20 24 28 25 20 24 21 31 22 14 24 30 32 22 22 30 34 39 44 48 52
25 23 25 31 34 31 26 14 12 14 23 30 31 28 25 9 8 17 27 27 24 26 23 17 26 11 3 13 19 18 26 26 16 11 25 28 28 26 28 29 36 36 46 50 50
24 21 23 28 26 31 16 16 25 20 15 9 11 13 13 24 19 26 37 26 25 22 27 28 4 17 19 16 21 25 27 24 25 19 18 11 26 27 30 30 36 45 46 48 55
24 20 20 22 11 27 6 24 26 17 10 15 12 9 14 17 16 18 35 24 13 18 15 20 19 19 23 25 21 26 25 20 18 22 25 34 26 31 32 34 31 50 51 60 60
23 19 18 17 21 13 17 23 21 5 10 8 13 9 16 21 27 19 28 20 16 16 15 13 18 29 26 20 21 25 9 27 27 26 31 24 20 27 23 24 35 42 46 54 64
22 19 16 19 24 14 24 16 5 12 9 10 10 13 22 23 15 21 23 12 1 11 11 3 4 11 24 11 18 13 16 17 17 25 29 38 31 29 25 31 33 42 47 49 52
22 19 15 19 13 26 19 6 11 14 5 11 8 8 16 24 22 21 28 25 18 16 21 17 24 19 12 21 18 19 18 16 21 26 31 37 41 25 39 19 33 36 55 37 41
23 17 19 22 22 20 6 11 16 2 6 5 3 9 19 25 23 19 24 26 13 15 5 9 17 25 22 26 17 31 27 21 19 23 28 27 21 29 28 34 40 44 38 34 32
20 15 19 21 15 6 15 18 11 4 7 9 9 20 16 18 14 17 15 21 24 20 10 11 12 9 9 10 18 19 21 18 25 23 19 16 18 12 25 24 28 29 27 22 22
13 9 13 14 7 14 15 25 10 5 8 6 10 9 22 24 23 20 18 7 16 10 11 3 7 7 16 10 15 20 9 14 19 27 32 20 21 18 11 19 23 20 23 8 17
13 11 12 9 11 18 18 21 13 8 8 5 2 6 4 17 16 20 10 14 4 11 15 8 9 17 9 20 11 14 22 18 13 15 18 21 16 2 10 22 26 28 26 16 13
11 10 6 25 16 11 17 13 3 11 9 5 7 6 2 4 12 11 17 9 5 9 12 4 6 11 12 11 5 14 20 7 14 19 17 17 23 26 17 30 31 33 24 10 4
13 9 12 13 12 15 11 19 10 12 11 5 4 3 1 5 6 18 20 11 6 4 4 8 5 12 19 17 11 4 4 6 4 7 21 19 18 8 16 27 28 23 15 5 5
13 11 11 16 7 11 15 16 19 16 17 11 8 6 6 9 3 18 23 9 10 11 7 2 2 11 18 16 9 9 6 11 10 13 17 17 24 20 23 22 20 14 7 4 7
12 5 2 12 19 16 11 5 21 14 19 15 13 16 7 10 15 16 20 21 11 9 4 4 9 10 11 13 14 17 20 18 18 21 25 25 30 20 23 27 23 13 4 5 12
12 7 9 10 8 23 15 19 17 16 12 21 21 19 16 9 3 18 18 12 7 10 4 0 7 11 19 11 14 19 23 26 26 26 24 26 27 16 23 27 20 13 2 15 23
13 13 7 17 14 18 20 17 13 8 19 10 23 15 20 14 2 15 11 11 8 7 7 5 4 10 20 6 15 23 10 13 20 23 26 27 31 43 36 30 23 8 3 17 24
Wind_Direction_500mb
342 346 349 349 347 346 344 343 340 339 338 339 336 332 333 337 342 9 168 197 181 175 175 178 173 179 182 201 213 234 236 201 131 236 108 155 166 140 111 136 137 162 206 159 159
335 342 345 346 345 343 340 339 336 333 336 338 337 333 333 336 19 360 190 168 168 169 172 174 179 176 189 199 206 232 249 98 22 4 243 174 194 149 164 152 133 127 132 149 156
325 334 340 341 341 341 338 336 332 331 335 335 337 335 334 338 167 49 139 154 159 163 173 179 183 182 200 198 197 202 246 107 91 3 262 185 176 157 180 186 154 155 150 156 162
316 328 335 337 338 337 337 333 330 332 333 332 335 334 337 334 343 119 135 150 150 168 173 177 179 193 207 201 194 231 231 216 46 360 218 182 157 179 193 59 143 159 160 163 170
309 321 328 331 333 334 334 329 327 331 330 332 334 330 342 291 101 159 162 167 169 165 178 180 185 201 211 206 197 238 197 229 267 277 241 177 176 162 180 118 149 158 164 171 177
305 318 326 329 329 330 329 325 324 329 328 328 333 331 331 258 175 158 169 171 180 174 179 182 195 207 229 212 213 206 244 240 268 270 226 204 177 185 158 157 152 165 172 177 180
300 317 327 330 329 328 326 323 322 324 321 315 323 333 291 307 182 158 164 171 184 181 180 179 181 206 189 189 214 231 230 224 230 257 229 208 176 213 156 171 164 173 178 184 189
299 315 327 330 329 327 324 322 318 317 313 305 304 324 294 209 180 164 169 183 183 183 177 192 208 242 230 170 198 220 233 219 145 184 187 203 192 186 170 175 176 179 184 190 197
294 312 326 330 330 327 327 325 318 312 304 299 303 285 163 161 154 173 164 180 172 175 180 182 205 233 195 217 208 210 217 220 151 192 175 209 241 143 177 190 186 187 194 199 202
286 306 323 329 333 329 333 331 317 312 311 308 261 228 199 153 156 155 185 156 166 165 171 199 208 214 218 220 218 208 225 206 217 183 214 200 235 150 184 199 201 195 200 206 208
281 303 321 328 336 337 344 349 347 256 312 269 287 282 229 206 202 191 178 164 159 179 192 201 215 215 211 221 287 298 237 216 207 165 209 219 225 192 190 212 215 203 205 212 216
274 297 316 327 338 347 5 53 38 324 303 283 261 249 238 229 195 178 172 186 190 193 201 184 227 196 269 222 238 245 236 230 135 203 216 211 235 239 226 219 230 221 214 214 214
267 290 310 327 334 350 11 11 348 339 265 263 217 229 214 193 207 177 180 200 201 204 203 232 153 165 207 202 228 227 237 224 243 178 219 238 232 243 243 254 244 242 234 225 219
260 282 305 332 358 348 354 339 337 339 268 138 177 162 170 183 202 174 185 186 192 211 202 236 166 186 209 226 227 236 218 250 232 215 219 201 244 209 227 244 242 242 235 232 221
256 276 300 329 326 339 308 323 331 325 242 113 118 150 172 199 131 174 186 207 203 153 214 119 194 215 223 223 203 250 211 230 232 236 258 205 246 261 191 226 244 243 237 230 223
249 267 296 313 323 318 323 323 321 234 221 139 135 175 170 190 170 142 176 200 297 189 224 134 188 210 218 170 215 138 194 196 222 240 236 243 233 247 215 219 245 244 238 236 226
243 261 282 296 295 312 320 293 229 247 111 147 158 188 192 178 174 178 181 189 200 200 204 192 203 211 239 220 184 217 216 219 214 220 242 241 242 249 269 237 251 259 265 232 234
239 255 273 286 298 307 287 225 235 303 235 70 245 189 197 165 171 175 193 197 220 237 168 234 173 197 189 238 236 204 222 252 248 247 246 200 243 254 261 266 270 271 270 278 259
234 263 277 281 289 259 220 221 222 241 355 308 220 190 166 175 192 181 205 222 185 211 251 176 134 147 204 208 228 190 230 267 278 264 271 251 200 258 246 246 253 259 261 262 275
217 242 234 257 246 180 226 241 252 269 324 275 251 271 173 169 173 200 175 149 174 212 247 127 222 179 139 218 224 256 14 229 227 262 257 254 245 271 230 270 277 295 274 288 318
195 220 224 234 165 194 230 223 242 246 276 289 278 215 160 163 193 178 151 121 188 167 213 220 256 150 213 214 187 180 223 232 300 301 284 273 262 10 280 298 310 298 316 336 335
192 212 210 152 207 211 226 212 225 224 220 269 286 280 290 199 159 150 154 73 126 178 182 125 264 251 234 71 324 288 304 297 261 240 240 291 285 299 286 289 298 304 312 337 4
192 150 178 172 229 209 186 223 225 208 213 234 252 300 34 145 138 132 125 84 104 186 148 154 182 239 166 164 160 155 55 216 346 280 263 283 284 34 290 277 288 308 313 296 131
175 172 163 203 258 279 200 207 207 209 245 254 290 256 236 177 148 154 130 94 87 87 52 291 218 298 316 20 358 274 247 269 273 276 299 279 294 299 327 317 305 292 285 222 148
191 186 122 179 200 211 209 179 202 196 218 215 231 237 237 181 155 143 130 137 137 143 148 272 247 258 264 270 265 279 284 280 261 265 272 292 299 297 340 342 332 326 304 134 118
174 178 183 151 168 201 182 193 209 197 221 197 230 215 217 232 204 165 155 166 157 161 172 129 232 261 270 252 254 264 271 278 277 275 274 272 276 297 344 337 338 342 327 122 115
183 155 219 145 177 202 186 208 201 206 214 245 199 215 212 199 82 80 72 99 131 182 172 227 213 246 265 160 292 263 2 329 324 311 327 301 327 341 333 343 344 356 109 122 124
Wind_Speed_850mb
21 23 26 30 33 36 40 40 40 40 42 44 42 39 35 30 21 13 2 15 31 42 43 34 23 18 20 19 11 8 12 8 3 8 12 16 17 12 12 28 10 12 4 32 43
22 25 28 31 33 36 39 40 40 40 40 42 41 36 32 27 7 7 5 24 30 41 42 35 30 26 24 20 13 19 15 6 8 6 3 14 21 19 14 24 17 14 23 40 46
20 23 27 32 36 38 40 40 41 40 38 39 40 32 29 23 4 5 10 27 32 42 28 26 27 28 25 21 19 18 11 8 5 9 8 12 21 18 15 16 14 28 42 44 44
20 24 30 33 35 40 41 41 40 40 36 38 35 28 26 10 2 4 17 29 30 33 27 24 31 30 25 21 22 18 14 5 6 5 7 19 24 18 16 8 13 34 44 44 42
20 24 29 34 38 40 42 42 40 40 35 35 28 25 21 9 6 8 20 24 25 25 29 30 32 31 25 26 23 24 16 10 8 11 11 19 22 15 19 9 25 40 44 42 39
24 26 30 35 40 43 43 42 40 38 35 30 24 22 15 12 5 12 22 21 20 22 29 26 22 21 15 21 29 25 19 14 12 18 14 22 23 18 20 21 32 44 45 42 40
25 26 31 37 43 46 46 43 38 36 34 26 20 21 11 7 11 16 22 19 21 20 26 23 15 18 12 18 20 12 21 17 14 13 14 28 23 25 27 31 36 43 44 42 44
26 27 31 37 44 48 48 45 37 35 31 23 19 18 8 6 9 17 21 17 20 21 16 16 9 9 17 3 16 23 24 24 14 14 7 33 32 33 35 36 37 43 43 45 46
26 28 31 37 44 49 50 45 38 32 22 17 15 3 5 6 5 18 19 12 20 22 15 13 8 10 15 24 23 25 26 33 15 19 8 28 15 39 36 36 32 42 45 47 49
25 25 30 37 43 48 47 41 27 19 5 9 8 7 9 14 9 13 19 19 21 27 20 16 16 18 21 21 27 31 36 18 22 24 22 31 21 11 31 37 34 42 46 48 51
25 24 28 34 40 43 43 24 17 2 17 17 10 16 7 5 6 14 23 21 23 32 25 27 20 24 28 25 20 24 21 31 22 14 24 30 32 22 22 30 34 39 44 48 52
25 23 25 31 34 31 26 14 12 14 23 30 31 28 25 9 8 17 27 27 24 26 23 17 26 11 3 13 19 18 26 26 16 11 25 28 28 26 28 29 36 36 46 50 50
24 21 23 28 26 31 16 16 25 20 15 9 11 13 13 24 19 26 37 26 25 22 27 28 4 17 19 16 21 25 27 24 25 19 18 11 26 27 30 30 36 45 46 48 55
24 20 20 22 11 27 6 24 26 17 10 15 12 9 14 17 16 18 35 24 13 18 15 20 19 19 23 25 21 26 25 20 18 22 25 34 26 31 32 34 31 50 51 60 60
23 19 18 17 21 13 17 23 21 5 10 8 13 9 16 21 27 19 28 20 16 16 15 13 18 29 26 20 21 25 9 27 27 26 31 24 20 27 23 24 35 42 46 54 64
22 19 16 19 24 14 24 16 5 12 9 10 10 13 22 23 15 21 23 12 1 11 11 3 4 11 24 11 18 13 16 17 17 25 29 38 31 29 25 31 33 42 47 49 52
22 19 15 19 13 26 19 6 11 14 5 11 8 8 16 24 22 21 28 25 18 16 21 17 24 19 12 21 18 19 18 16 21 26 31 37 41 25 39 19 33 36 55 37 41
23 17 19 22 22 20 6 11 16 2 6 5 3 9 19 25 23 19 24 26 13 15 5 9 17 25 22 26 17 31 27 21 19 23 28 27 21 29 28 34 40 44 38 34 32
20 15 19 21 15 6 15 18 11 4 7 9 9 20 16 18 14 17 15 21 24 20 10 11 12 9 9 10 18 19 21 18 25 23 19 16 18 12 25 24 28 29 27 22 22
13 9 13 14 7 14 15 25 10 5 8 6 10 9 22 24 23 20 18 7 16 10 11 3 7 7 16 10 15 20 9 14 19 27 32 20 21 18 11 19 23 20 23 8 17
13 11 12 9 11 18 18 21 13 8 8 5 2 6 4 17 16 20 10 14 4 11 15 8 9 17 9 20 11 14 22 18 13 15 18 21 16 2 10 22 26 28 26 16 13
11 10 6 25 16 11 17 13 3 11 9 5 7 6 2 4 12 11 17 9 5 9 12 4 6 11 12 11 5 14 20 7 14 19 17 17 23 26 17 30 31 33 24 10 4
13 9 12 13 12 15 11 19 10 12 11 5 4 3 1 5 6 18 20 11 6 4 4 8 5 12 19 17 11 4 4 6 4 7 21 19 18 8 16 27 28 23 15 5 5
13 11 11 16 7 11 15 16 19 16 17 11 8 6 6 9 3 18 23 9 10 11 7 2 2 11 18 16 9 9 6 11 10 13 17 17 24 20 23 22 20 14 7 4 7
12 5 2 12 19 16 11 5 21 14 19 15 13 16 7 10 15 16 20 21 11 9 4 4 9 10 11 13 14 17 20 18 18 21 25 25 30 20 23 27 23 13 4 5 12
12 7 9 10 8 23 15 19 17 16 12 21 21 19 16 9 3 18 18 12 7 10 4 0 7 11 19 11 14 19 23 26 26 26 24 26 27 16 23 27 20 13 2 15 23
13 13 7 17 14 18 20 17 13 8 19 10 23 15 20 14 2 15 11 11 8 7 7 5 4 10 20 6 15 23 10 13 20 23 26 27 31 43 36 30 23 8 3 17 24
Wind_Direction_850mb
342 346 349 349 347 346 344 343 340 339 338 339 336 332 333 337 342 9 168 197 181 175 175 178 173 179 182 201 213 234 236 201 131 236 108 155 166 140 111 136 137 162 206 159 159
335 342 345 346 345 343 340 339 336 333 336 338 337 333 333 336 19 360 190 168 168 169 172 174 179 176 189 199 206 232 249 98 22 4 243 174 194 149 164 152 133 127 132 149 156
325 334 340 341 341 341 338 336 332 331 335 335 337 335 334 338 167 49 139 154 159 163 173 179 183 182 200 198 197 202 246 107 91 3 262 185 176 157 180 186 154 155 150 156 162
316 328 335 337 338 337 337 333 330 332 333 332 335 334 337 334 343 119 135 150 150 168 173 177 179 193 207 201 194 231 231 216 46 360 218 182 157 179 193 59 143 159 160 163 170
309 321 328 331 333 334 334 329 327 331 330 332 334 330 342 291 101 159 162 167 169 165 178 180 185 201 211 206 197 238 197 229 267 277 241 177 176 162 180 118 149 158 164 171 177
305 318 326 329 329 330 329 325 324 329 328 328 333 331 331 258 175 158 169 171 180 174 179 182 195 207 229 212 213 206 244 240 268 270 226 204 177 185 158 157 152 165 172 177 180
300 317 327 330 329 328 326 323 322 324 321 315 323 333 291 307 182 158 164 171 184 181 180 179 181 206 189 189 214 231 230 224 230 257 229 208 176 213 156 171 164 173 178 184 189
299 315 327 330 329 327 324 322 318 317 313 305 304 324 294 209 180 164 169 183 183 183 177 192 208 242 230 170 198 220 233 219 145 184 187 203 192 186 170 175 176 179 184 190 197
294 312 326 330 330 327 327 325 318 312 304 299 303 285 163 161 154 173 164 180 172 175 180 182 205 233 195 217 208 210 217 220 151 192 175 209 241 143 177 190 186 187 194 199 202
286 306 323 329 333 329 333 331 317 312 311 308 261 228 199 153 156 155 185 156 166 165 171 199 208 214 218 220 218 208 225 206 217 183 214 200 235 150 184 199 201 195 200 206 208
281 303 321 328 336 337 344 349 347 256 312 269 287 282 229 206 202 191 178 164 159 179 192 201 215 215 211 221 287 298 237 216 207 165 209 219 225 192 190 212 215 203 205 212 216
274 297 316 327 338 347 5 53 38 324 303 283 261 249 238 229 195 178 172 186 190 193 201 184 227 196 269 222 238 245 236 230 135 203 216 211 235 239 226 219 230 221 214 214 214
267 290 310 327 334 350 11 11 348 339 265 263 217 229 214 193 207 177 180 200 201 204 203 232 153 165 207 202 228 227 237 224 243 178 219 238 232 243 243 254 244 242 234 225 219
260 282 305 332 358 348 354 339 337 339 268 138 177 162 170 183 202 174 185 186 192 211 202 236 166 186 209 226 227 236 218 250 232 215 219 201 244 209 227 244 242 242 235 232 221
256 276 300 329 326 339 308 323 331 325 242 113 118 150 172 199 131 174 186 207 203 153 214 119 194 215 223 223 203 250 211 230 232 236 258 205 246 261 191 226 244 243 237 230 223
249 267 296 313 323 318 323 323 321 234 221 139 135 175 170 190 170 142 176 200 297 189 224 134 188 210 218 170 215 138 194 196 222 240 236 243 233 247 215 219 245 244 238 236 226
243 261 282 296 295 312 320 293 229 247 111 147 158 188 192 178 174 178 181 189 200 200 204 192 203 211 239 220 184 217 216 219 214 220 242 241 242 249 269 237 251 259 265 232 234
239 255 273 286 298 307 287 225 235 303 235 70 245 189 197 165 171 175 193 197 220 237 168 234 173 197 189 238 236 204 222 252 248 247 246 200 243 254 261 266 270 271 270 278 259
234 263 277 281 289 259 220 221 222 241 355 308 220 190 166 175 192 181 205 222 185 211 251 176 134 147 204 208 228 190 230 267 278 264 271 251 200 258 246 246 253 259 261 262 275
217 242 234 257 246 180 226 241 252 269 324 275 251 271 173 169 173 200 175 149 174 212 247 127 222 179 139 218 224 256 14 229 227 262 257 254 245 271 230 270 277 295 274 288 318
195 220 224 234 165 194 230 223 242 246 276 289 278 215 160 163 193 178 151 121 188 167 213 220 256 150 213 214 187 180 223 232 300 301 284 273 262 10 280 298 310 298 316 336 335
192 212 210 152 207 211 226 212 225 224 220 269 286 280 290 199 159 150 154 73 126 178 182 125 264 251 234 71 324 288 304 297 261 240 240 291 285 299 286 289 298 304 312 337 4
192 150 178 172 229 209 186 223 225 208 213 234 252 300 34 145 138 132 125 84 104 186 148 154 182 239 166 164 160 155 55 216 346 280 263 283 284 34 290 277 288 308 313 296 131
175 172 163 203 258 279 200 207 207 209 245 254 290 256 236 177 148 154 130 94 87 87 52 291 218 298 316 20 358 274 247 269 273 276 299 279 294 299 327 317 305 292 285 222 148
191 186 122 179 200 211 209 179 202 196 218 215 231 237 237 181 155 143 130 137 137 143 148 272 247 258 264 270 265 279 284 280 261 265 272 292 299 297 340 342 332 326 304 134 118
174 178 183 151 168 201 182 193 209 197 221 197 230 215 217 232 204 165 155 166 157 161 172 129 232 261 270 252 254 264 271 278 277 275 274 272 276 297 344 337 338 342 327 122 115
183 155 219 145 177 202 186 208 201 206 214 245 199 215 212 199 82 80 72 99 131 182 172 227 213 246 265 160 292 263 2 329 324 311 327 301 327 341 333 343 344 356 109 122 124